Weather History for KHFF - March, 2014

Change the Weather History Date:

Monday, March 17, 2014

  Actual Average Record
Temperature  
Mean Temperature 40 °F -  
Max Temperature 43 °F 61 °F 82 °F (2015)
Min Temperature 32 °F 41 °F 32 °F (2014)
Degree Days  
Heating Degree Days 25    
Moisture  
Dew Point 35 °F    
Average Humidity 96    
Maximum Humidity 100    
Minimum Humidity 93    
Precipitation  
Precipitation 0.78 in - - ()
Sea Level Pressure  
Sea Level Pressure 29.89 in    
Wind  
Wind Speed 11 mph (NE)    
Max Wind Speed 16 mph    
Max Gust Speed 24 mph    
Visibility 6 miles    
Events Rain , Snow    
Averages and records for this station are not official NWS values.
T = Trace of Precipitation, MM = Missing Value Source: NWS Daily Summary

Daily Weather History Graph

Daily Weather History Graph

Search for Another Location

Airport or City:

Trip Planner

Search our weather history database for the weather conditions in past years. The results will help you decide how hot, cold, wet, or windy it might be!

Date:

Astronomy

Mar. 17, 2014 Rise Set
Actual Time 7:25 AM EDT 7:27 PM EDT
Civil Twilight 7:00 AM EDT 7:52 PM EDT
Nautical Twilight 6:31 AM EDT 8:21 PM EDT
Astronomical Twilight 6:01 AM EDT 8:51 PM EDT
Moon 8:38 PM EDT (3/17) 7:43 AM EDT (3/17)
Length of Visible Light 12h 51m
Length of Day
12h 01m
Full, 99% of the Moon is Illuminated
Mar 17
Full
Mar 23
Last Quarter
Mar 30
New
Apr 7
First Quarter
Apr 15
Full

Hourly Weather History & Observations

Time (EDT) Temp. Windchill Dew Point Humidity Pressure Visibility Wind Dir Wind Speed Gust Speed Precip Events Conditions
12:01 AM 48.2 °F - 46.4 °F 93% 29.80 in 3.0 mi NE 9.2 mph - N/A Rain Light Rain
12:26 AM 46.4 °F 40.4 °F 44.6 °F 93% 29.80 in 9.0 mi NNE 13.8 mph 19.6 mph N/A Rain Light Rain
12:56 AM 43.9 °F 38.8 °F 42.6 °F 95% 29.81 in 4.0 mi NE 9.2 mph - 0.02 in Rain Light Rain
1:56 AM 40.8 °F 34.1 °F 39.9 °F 97% 29.82 in 6.0 mi NE 11.5 mph - 0.01 in Rain Light Rain
2:01 AM 41.0 °F 35.2 °F 41.0 °F 100% 29.82 in 4.0 mi NE 9.2 mph - N/A Rain Light Rain
2:31 AM 39.2 °F 31.2 °F 39.2 °F 100% 29.80 in 6.0 mi NNE 13.8 mph - N/A Rain Light Rain
2:36 AM 39.2 °F 32.5 °F 39.2 °F 100% 29.81 in 9.0 mi NE 10.4 mph 19.6 mph N/A Rain Light Rain
2:56 AM 39.2 °F 30.5 °F 38.3 °F 97% 29.83 in 8.0 mi NNE 16.1 mph 19.6 mph 0.01 in Rain Light Rain Showers
3:01 AM 39.2 °F 31.6 °F 37.4 °F 93% 29.82 in 10.0 mi NE 12.7 mph 19.6 mph N/A Rain Light Rain Showers
3:16 AM 39.2 °F 32.0 °F 37.4 °F 93% 29.82 in 7.0 mi NNE 11.5 mph 19.6 mph N/A Rain Light Rain Showers
3:21 AM 39.2 °F 30.8 °F 37.4 °F 93% 29.82 in 7.0 mi NNE 15.0 mph 19.6 mph N/A Rain Light Rain Showers
3:33 AM 37.4 °F 29.8 °F 37.4 °F 100% 29.82 in 12.0 mi NE 11.5 mph 20.7 mph N/A   Overcast
3:44 AM 37.4 °F 28.5 °F 37.4 °F 100% 29.82 in 10.0 mi NNE 15.0 mph 21.9 mph N/A Rain Light Rain Showers
3:56 AM 37.8 °F 29.8 °F 36.9 °F 97% 29.83 in 6.0 mi NNE 12.7 mph 18.4 mph N/A Rain Light Rain Showers
4:43 AM 37.4 °F 28.9 °F 35.6 °F 93% 29.80 in 8.0 mi NNE 13.8 mph - N/A   Overcast
4:49 AM 37.4 °F 31.4 °F 37.4 °F 100% 29.80 in 7.0 mi NE 8.1 mph 18.4 mph N/A Rain Light Rain Showers
4:56 AM 37.2 °F 29.1 °F 36.3 °F 97% 29.82 in 8.0 mi NNE 12.7 mph 19.6 mph N/A Rain Light Rain Showers
5:09 AM 37.4 °F 28.2 °F 35.6 °F 93% 29.81 in 11.0 mi NNE 16.1 mph 23.0 mph N/A   Overcast
5:30 AM 37.4 °F 28.9 °F 35.6 °F 93% 29.81 in 12.0 mi NE 13.8 mph 21.9 mph N/A   Overcast
5:56 AM 36.3 °F 26.8 °F 34.7 °F 94% 29.81 in 12.0 mi NE 16.1 mph 24.2 mph 0.01 in   Overcast
6:56 AM 35.8 °F 26.5 °F 34.3 °F 94% 29.84 in 12.0 mi NE 15.0 mph 20.7 mph N/A   Overcast
7:15 AM 35.6 °F 27.5 °F 35.6 °F 100% 29.85 in 6.0 mi NE 11.5 mph - N/A   Overcast
7:32 AM 35.6 °F 28.6 °F 35.6 °F 100% 29.87 in 3.0 mi NNE 9.2 mph - N/A   Light Drizzle
7:37 AM 35.6 °F 28.6 °F 35.6 °F 100% 29.87 in 3.0 mi NNE 9.2 mph - N/A   Light Drizzle
7:52 AM 35.6 °F 28.0 °F 35.6 °F 100% 29.86 in 2.8 mi NNE 10.4 mph - N/A   Light Drizzle
7:56 AM 35.4 °F 26.8 °F 34.9 °F 98% 29.88 in 2.8 mi NNE 12.7 mph 18.4 mph N/A   Light Drizzle
8:01 AM 35.6 °F 26.6 °F 35.6 °F 100% 29.85 in 3.0 mi NE 13.8 mph - N/A   Light Drizzle
8:11 AM 35.6 °F 27.1 °F 33.8 °F 93% 29.86 in 3.0 mi NE 12.7 mph - N/A Rain Light Rain Showers
8:16 AM 35.6 °F 27.5 °F 33.8 °F 93% 29.87 in 3.0 mi NE 11.5 mph 19.6 mph N/A   Overcast
8:47 AM 35.6 °F 27.1 °F 33.8 °F 93% 29.87 in 6.0 mi NE 12.7 mph - N/A   Overcast
8:56 AM 35.1 °F 26.9 °F 34.3 °F 97% 29.88 in 7.0 mi NNE 11.5 mph - N/A   Overcast
9:06 AM 35.6 °F 28.0 °F 33.8 °F 93% 29.86 in 6.0 mi NE 10.4 mph - N/A   Overcast
9:46 AM 35.6 °F 27.5 °F 33.8 °F 93% 29.85 in 12.0 mi NE 11.5 mph 17.3 mph N/A   Overcast
9:56 AM 35.4 °F 30.5 °F 34.5 °F 97% 29.88 in 12.0 mi ENE 5.8 mph 17.3 mph N/A   Overcast
10:56 AM 35.4 °F 28.4 °F 33.8 °F 94% 29.91 in 12.0 mi NE 9.2 mph 18.4 mph N/A   Overcast
11:06 AM 35.6 °F 26.6 °F 33.8 °F 93% 29.90 in 12.0 mi NE 13.8 mph 19.6 mph N/A   Overcast
11:56 AM 35.6 °F 25.9 °F 34.2 °F 94% 29.91 in 12.0 mi NNE 16.1 mph 20.7 mph N/A   Overcast
12:56 PM 35.6 °F 28.0 °F 33.8 °F 93% 29.94 in 12.0 mi NE 10.4 mph - N/A   Overcast
1:20 PM 35.6 °F 29.9 °F 33.8 °F 93% 29.90 in 9.0 mi NE 6.9 mph - N/A   Overcast
1:56 PM 35.2 °F 27.1 °F 33.6 °F 94% 29.91 in 12.0 mi NE 11.5 mph - N/A   Overcast
2:21 PM 35.6 °F 25.9 °F 33.8 °F 93% 29.89 in 12.0 mi NNE 16.1 mph 19.6 mph N/A   Overcast
2:47 PM 35.6 °F 27.5 °F 33.8 °F 93% 29.87 in 12.0 mi NNE 11.5 mph 17.3 mph N/A Rain Light Rain
2:56 PM 34.9 °F 26.2 °F 33.4 °F 94% 29.90 in 12.0 mi NNE 12.7 mph 18.4 mph N/A   Light Drizzle
3:56 PM 34.7 °F 26.9 °F 33.6 °F 96% 29.92 in 7.0 mi NNE 10.4 mph - 0.03 in Rain , Snow Light Rain
4:10 PM 35.6 °F 27.1 °F 33.8 °F 93% 29.89 in 7.0 mi NNE 12.7 mph - N/A Rain Light Rain
4:30 PM 33.8 °F 26.4 °F 33.8 °F 100% 29.88 in 7.0 mi NE 9.2 mph - N/A Rain Rain
4:34 PM 33.8 °F 27.0 °F 33.8 °F 100% 29.88 in 6.0 mi NE 8.1 mph - N/A Rain , Snow Light Rain
4:56 PM 34.3 °F 26.5 °F 33.4 °F 97% 29.90 in 7.0 mi NNE 10.4 mph - 0.06 in Rain , Snow Light Rain
5:06 PM 33.8 °F 27.0 °F 33.8 °F 100% 29.88 in 8.0 mi NE 8.1 mph - N/A Rain , Snow Light Rain
5:56 PM 34.3 °F 28.4 °F 33.6 °F 97% 29.92 in 8.0 mi NE 6.9 mph - 0.08 in Rain , Snow Light Rain
6:45 PM 33.8 °F 24.8 °F 33.8 °F 100% 29.89 in 7.0 mi NNE 12.7 mph 17.3 mph N/A Rain Rain
6:50 PM 33.8 °F 25.3 °F 33.8 °F 100% 29.89 in 5.0 mi NE 11.5 mph 17.3 mph N/A Rain Rain
6:56 PM 34.3 °F 27.0 °F 33.6 °F 97% 29.91 in 3.0 mi NE 9.2 mph - 0.11 in Rain , Snow Light Rain
7:06 PM 33.8 °F 27.0 °F 33.8 °F 100% 29.90 in 2.2 mi NE 8.1 mph - N/A Rain , Snow Light Rain
7:11 PM 33.8 °F 24.8 °F 33.8 °F 100% 29.89 in 1.6 mi NE 12.7 mph 17.3 mph N/A Rain , Snow Light Rain
7:16 PM 33.8 °F 25.8 °F 33.8 °F 100% 29.89 in 2.2 mi NE 10.4 mph 17.3 mph N/A Rain , Snow Light Rain
7:31 PM 33.8 °F 27.0 °F 33.8 °F 100% 29.89 in 3.0 mi NE 8.1 mph - N/A Rain , Snow Light Rain
7:40 PM 33.8 °F 27.0 °F 33.8 °F 100% 29.89 in 7.0 mi NE 8.1 mph - N/A Rain , Snow Light Rain
7:56 PM 34.3 °F 27.7 °F 33.4 °F 97% 29.92 in 7.0 mi NE 8.1 mph - 0.12 in Rain Rain
8:11 PM 33.8 °F 26.4 °F 33.8 °F 100% 29.90 in 8.0 mi NNE 9.2 mph - N/A Rain Light Rain
8:14 PM 33.8 °F 27.0 °F 33.8 °F 100% 29.90 in 9.0 mi NNE 8.1 mph - N/A Rain Light Rain
8:35 PM 33.8 °F 27.0 °F 33.8 °F 100% 29.91 in 5.0 mi NNE 8.1 mph - N/A Rain , Snow Light Rain
8:40 PM 33.8 °F 25.3 °F 33.8 °F 100% 29.91 in 4.0 mi NNE 11.5 mph - N/A Rain , Snow Light Rain
8:56 PM 34.0 °F 26.6 °F 33.4 °F 98% 29.94 in 5.0 mi NNE 9.2 mph - 0.06 in Rain , Snow Light Rain
9:36 PM 33.8 °F 25.3 °F 32.0 °F 93% 29.93 in 4.0 mi NNE 11.5 mph - N/A Rain Light Rain
9:41 PM 33.8 °F 26.4 °F 33.8 °F 100% 29.93 in 2.8 mi NNE 9.2 mph - N/A Rain , Snow Light Rain
9:50 PM 33.8 °F 25.8 °F 32.0 °F 93% 29.94 in 2.8 mi NNE 10.4 mph - N/A Rain , Snow Light Rain
9:55 PM 33.8 °F 26.4 °F 32.0 °F 93% 29.94 in 3.0 mi NNE 9.2 mph - N/A Rain , Snow Light Rain
9:56 PM 33.3 °F 26.4 °F 32.7 °F 98% 29.96 in 3.0 mi NNE 8.1 mph - 0.09 in Rain , Snow Light Rain
10:16 PM 33.8 °F 26.4 °F 32.0 °F 93% 29.94 in 3.0 mi NNE 9.2 mph 17.3 mph N/A Rain Rain
10:21 PM 33.8 °F 25.8 °F 32.0 °F 93% 29.94 in 2.8 mi NNE 10.4 mph - N/A Rain Light Rain
10:26 PM 33.8 °F 23.9 °F 32.0 °F 93% 29.95 in 3.0 mi NNE 15.0 mph 18.4 mph N/A Rain Light Rain
10:31 PM 33.8 °F 25.3 °F 32.0 °F 93% 29.95 in 5.0 mi NE 11.5 mph - N/A Rain Light Rain
10:51 PM 33.8 °F 27.7 °F 32.0 °F 93% 29.96 in 3.0 mi NNE 6.9 mph - N/A Rain , Snow Light Rain
10:54 PM 33.8 °F 28.6 °F 32.0 °F 93% 29.96 in 4.0 mi NNE 5.8 mph - N/A Rain , Snow Light Rain
10:56 PM 33.1 °F 27.7 °F 32.5 °F 98% 29.98 in 4.0 mi NNE 5.8 mph - 0.06 in Rain , Snow Light Rain
11:11 PM 33.8 °F 23.9 °F 32.0 °F 93% 29.96 in 2.5 mi NNE 15.0 mph 20.7 mph N/A Snow Light Snow
11:26 PM 32.0 °F 22.5 °F 32.0 °F 100% 29.97 in 4.0 mi NNE 12.7 mph - N/A Rain , Snow Light Rain
11:31 PM 32.0 °F 22.1 °F 32.0 °F 100% 29.97 in 4.0 mi North 13.8 mph 19.6 mph N/A Rain , Snow Light Rain
11:36 PM 32.0 °F 23.0 °F 32.0 °F 100% 29.97 in 4.0 mi NNE 11.5 mph 19.6 mph N/A Rain Light Rain
11:51 PM 32.0 °F 23.6 °F 32.0 °F 100% 29.97 in 2.2 mi NE 10.4 mph - N/A Snow Light Snow
11:56 PM 32.4 °F 25.3 °F 31.8 °F 98% 29.99 in 2.2 mi NE 8.1 mph - 0.12 in Snow Light Snow